Location: ????????
(56.1167°N, 38.6333°E)
Time: 21:10:55
(UTC+00:00)

Cosmos 841 Rocket - Pass Details

Date: 18 November 2025
Orbit: 742 x 768 km, 74.0° (Epoch: 06 December)

Event Time Altitude Azimuth Distance (km) Brightness Sun altitude
Rises 14:02:55 0° 331° (NNW) 3,248 6.8 -7.0°
Reaches altitude 10° 14:05:35 10° 342° (NNW) 2,320 5.9 -7.3°
Maximum altitude 14:10:14 31° 44° (NE) 1,342 4.3 -7.9°
Drops below altitude 10° 14:14:52 10° 106° (ESE) 2,312 5.5 -8.5°
Sets 14:17:31 0° 117° (ESE) 3,234 6.3 -8.9°
